Location: Deuil
(48.9767°N, 2.3272°E)
Time: 15:45:56
(UTC+00:00)

Cosmos 1892 - Pass Details

Date: 24 October 2021
Orbit: 501 x 522 km, 82.5° (Epoch: 28 November)

Event Time Altitude Azimuth Distance (km) Brightness Sun altitude
Rises 18:45:03 0° 347° (NNW) 2,619 6.5 -20.5°
Reaches altitude 10° 18:47:12 10° 345° (NNW) 1,726 5.6 -20.9°
Maximum altitude 18:50:57 65° 264° (W) 559 3.0 -21.5°
Enters shadow 18:53:37 18° 185° (S) 1,290 4.7 -21.9°
